UTA445 UUWW-USRK

Flight info

Callsign UTA445
Flight time 2h 56m
Altitude 35000
Route RILPO3D RILPO DCT RANTO T753 AGBIR T783 BALOB N155 UNISO B229 LULIT DCT KANAL KANAL2K
Aircraft B735/M-SDFGIRWYZ/H

Departure

Time 2026-04-22 11:59
Airport Vnukovo International Airport (UUWW)

Arrival

Time 2026-04-22 14:55
Airport Kogalym International Airport (USRK)
Time Latitude Longitude Altitude Speed Heading
2026-04-22 11:36 55.59895 37.27967 688 ft 0 kts 15°
2026-04-22 11:53 55.59900 37.27969 691 ft 3 kts 15°
2026-04-22 11:53 55.59928 37.27985 695 ft 4 kts 27°
2026-04-22 11:53 55.59938 37.28039 695 ft 6 kts 94°
2026-04-22 11:53 55.59934 37.28120 695 ft 7 kts 89°
2026-04-22 11:54 55.59938 37.28212 695 ft 8 kts 85°
2026-04-22 11:54 55.59934 37.28309 694 ft 8 kts 105°
2026-04-22 11:54 55.59904 37.28388 689 ft 8 kts 142°
2026-04-22 11:54 55.59867 37.28457 693 ft 8 kts 104°
2026-04-22 11:55 55.59879 37.28546 693 ft 8 kts 69°
2026-04-22 11:55 55.59899 37.28639 689 ft 8 kts 68°
2026-04-22 11:55 55.59920 37.28734 692 ft 8 kts 68°
2026-04-22 11:55 55.59942 37.28830 691 ft 8 kts 68°
2026-04-22 11:56 55.59941 37.28926 695 ft 8 kts 124°
2026-04-22 11:56 55.59916 37.28954 691 ft 0 kts 166°
2026-04-22 11:56 55.59909 37.28956 692 ft 3 kts 172°
2026-04-22 11:56 55.59875 37.28968 693 ft 6 kts 167°
2026-04-22 11:57 55.59830 37.28987 689 ft 7 kts 167°
2026-04-22 11:57 55.59790 37.28966 694 ft 6 kts 234°
2026-04-22 11:57 55.59776 37.28906 691 ft 3 kts 251°
2026-04-22 11:57 55.59766 37.28861 688 ft 5 kts 249°
2026-04-22 11:58 55.59716 37.28645 691 ft 44 kts 248°
2026-04-22 11:58 55.59532 37.27817 690 ft 103 kts 249°
2026-04-22 11:58 55.59192 37.26305 691 ft 161 kts 249°
2026-04-22 11:58 55.58757 37.24317 1261 ft 176 kts 249°
2026-04-22 11:59 55.58138 37.22507 2311 ft 171 kts 230°
2026-04-22 11:59 55.57310 37.21004 3078 ft 175 kts 227°
2026-04-22 11:59 55.56494 37.19303 3625 ft 189 kts 235°
2026-04-22 11:59 55.55698 37.17300 3938 ft 208 kts 240°
2026-04-22 12:00 55.55104 37.14882 3932 ft 221 kts 257°
2026-04-22 12:00 55.54906 37.12200 3944 ft 222 kts 268°
2026-04-22 12:00 55.54930 37.09481 3958 ft 225 kts 277°
2026-04-22 12:00 55.55399 37.06785 4493 ft 232 kts 299°
2026-04-22 12:01 55.56451 37.04662 5248 ft 235 kts 324°
2026-04-22 12:01 55.57970 37.03660 5892 ft 235 kts 349°
2026-04-22 12:01 55.59643 37.03420 6548 ft 248 kts 355°
2026-04-22 12:01 55.61421 37.03380 7188 ft 262 kts 358°
2026-04-22 12:02 55.63296 37.03342 7676 ft 275 kts 355°
2026-04-22 12:02 55.65173 37.02784 8039 ft 274 kts 342°
2026-04-22 12:02 55.66963 37.01633 8892 ft 274 kts 337°
2026-04-22 12:02 55.68710 37.00310 9944 ft 272 kts 336°
2026-04-22 12:03 55.70452 36.98980 10824 ft 274 kts 337°
2026-04-22 12:03 55.72227 36.97644 11628 ft 279 kts 337°
2026-04-22 12:03 55.74054 36.96266 12202 ft 294 kts 337°
2026-04-22 12:03 55.75982 36.94800 12841 ft 304 kts 337°
2026-04-22 12:04 55.77928 36.93311 13714 ft 307 kts 337°
2026-04-22 12:04 55.79911 36.91827 14439 ft 311 kts 339°
2026-04-22 12:04 55.81284 36.91032 14935 ft 314 kts 347°
2026-04-22 12:04 55.84162 36.90464 16012 ft 315 kts 359°
2026-04-22 12:05 55.86360 36.90558 16852 ft 317 kts
2026-04-22 12:05 55.88583 36.90713 17642 ft 321 kts
2026-04-22 12:05 55.90093 36.90791 18140 ft 323 kts
2026-04-22 12:05 55.93087 36.90889 19044 ft 326 kts
2026-04-22 12:06 55.95337 36.91571 19598 ft 335 kts 21°
2026-04-22 12:06 55.96720 36.92909 20053 ft 337 kts 31°
2026-04-22 12:06 55.98629 36.95206 20953 ft 333 kts 31°
2026-04-22 12:06 56.00566 36.97516 21426 ft 335 kts 30°
2026-04-22 12:07 56.02525 36.99706 21386 ft 334 kts 28°
2026-04-22 12:07 56.04539 37.01911 21438 ft 346 kts 29°
2026-04-22 12:07 56.06629 37.04244 21686 ft 361 kts 29°
2026-04-22 12:07 56.08801 37.06680 21912 ft 376 kts 30°
2026-04-22 12:08 56.11070 37.09221 22080 ft 392 kts 30°
2026-04-22 12:08 56.13424 37.11851 22470 ft 402 kts 30°
2026-04-22 12:08 56.15818 37.14527 22997 ft 408 kts 30°
2026-04-22 12:08 56.18159 37.17146 23617 ft 410 kts 29°
2026-04-22 12:09 56.20579 37.19855 24273 ft 411 kts 29°
2026-04-22 12:09 56.23016 37.22584 24878 ft 412 kts 29°
2026-04-22 12:09 56.25439 37.25298 25592 ft 410 kts 29°
2026-04-22 12:09 56.27852 37.28004 26310 ft 409 kts 29°
2026-04-22 12:10 56.30269 37.30715 26985 ft 408 kts 29°
2026-04-22 12:10 56.32648 37.33384 27680 ft 406 kts 28°
2026-04-22 12:10 56.35067 37.36101 28397 ft 404 kts 28°
2026-04-22 12:10 56.37450 37.38796 29079 ft 403 kts 29°
2026-04-22 12:11 56.39738 37.41723 29738 ft 405 kts 35°
2026-04-22 12:11 56.41814 37.45075 30289 ft 406 kts 40°
2026-04-22 12:11 56.43767 37.48761 30862 ft 406 kts 43°
2026-04-22 12:11 56.45689 37.52525 31275 ft 408 kts 43°
2026-04-22 12:12 56.47642 37.56244 31707 ft 408 kts 41°
2026-04-22 12:12 56.49636 37.59923 32227 ft 406 kts 41°
2026-04-22 12:12 56.51625 37.63546 32663 ft 407 kts 41°
2026-04-22 12:12 56.53625 37.67189 33070 ft 408 kts 41°
2026-04-22 12:13 56.55615 37.70839 33521 ft 407 kts 41°
2026-04-22 12:13 56.57603 37.74501 33904 ft 407 kts 41°
2026-04-22 12:13 56.59597 37.78178 34193 ft 409 kts 42°
2026-04-22 12:13 56.61601 37.81869 34394 ft 410 kts 41°
2026-04-22 12:14 56.63606 37.85515 34622 ft 408 kts 41°
2026-04-22 12:14 56.65633 37.89133 34696 ft 411 kts 41°
2026-04-22 12:14 56.69821 37.96529 34697 ft 428 kts 41°
2026-04-22 12:15 56.74076 38.04139 34683 ft 431 kts 41°
2026-04-22 12:15 56.78320 38.11771 34683 ft 426 kts 41°
2026-04-22 12:16 56.82537 38.19337 34680 ft 426 kts 41°
2026-04-22 12:16 56.86804 38.26908 34684 ft 431 kts 39°
2026-04-22 12:17 56.91302 38.34188 34671 ft 430 kts 37°
2026-04-22 12:17 56.95843 38.41277 34673 ft 427 kts 37°
2026-04-22 12:18 57.00301 38.48348 34671 ft 427 kts 38°
2026-04-22 12:18 57.04789 38.55501 34675 ft 428 kts 38°
2026-04-22 12:19 57.09301 38.62684 34661 ft 431 kts 38°
2026-04-22 12:19 57.13836 38.69912 34668 ft 431 kts 38°
2026-04-22 12:20 57.18355 38.77127 34661 ft 430 kts 38°
2026-04-22 12:20 57.22884 38.84365 34664 ft 430 kts 38°
2026-04-22 12:21 57.27409 38.91606 34656 ft 430 kts 38°
2026-04-22 12:21 57.31920 38.98832 34649 ft 433 kts 38°
2026-04-22 12:22 57.36481 39.06147 34649 ft 433 kts 38°
2026-04-22 12:22 57.41041 39.13472 34642 ft 433 kts 38°
2026-04-22 12:23 57.45593 39.20795 34639 ft 432 kts 38°
2026-04-22 12:23 57.50095 39.28085 34658 ft 433 kts 38°
2026-04-22 12:24 57.54649 39.35561 34637 ft 438 kts 38°
2026-04-22 12:24 57.59212 39.43072 34631 ft 436 kts 38°
2026-04-22 12:25 57.63749 39.50533 34633 ft 434 kts 38°
2026-04-22 12:25 57.68280 39.57992 34631 ft 435 kts 38°
2026-04-22 12:26 57.72830 39.65493 34634 ft 437 kts 38°
2026-04-22 12:26 57.77396 39.73032 34625 ft 439 kts 38°
2026-04-22 12:27 57.81982 39.80615 34623 ft 439 kts 38°
2026-04-22 12:27 57.86531 39.88158 34615 ft 439 kts 38°
2026-04-22 12:28 57.91077 39.95838 34615 ft 439 kts 39°
2026-04-22 12:28 57.95599 40.03557 34606 ft 441 kts 39°
2026-04-22 12:29 58.00157 40.11325 34605 ft 441 kts 39°
2026-04-22 12:29 58.04712 40.19093 34596 ft 441 kts 39°
2026-04-22 12:30 58.11525 40.30733 34594 ft 441 kts 39°
2026-04-22 12:31 58.16048 40.38574 34590 ft 442 kts 42°
2026-04-22 12:31 58.19771 40.47880 34587 ft 448 kts 58°
2026-04-22 12:32 58.22666 40.58396 34582 ft 449 kts 59°
2026-04-22 12:32 58.27267 40.73862 34583 ft 448 kts 57°
2026-04-22 12:33 58.30402 40.84120 34583 ft 449 kts 57°
2026-04-22 12:33 58.33505 40.94435 34573 ft 451 kts 57°
2026-04-22 12:34 58.36620 41.04799 34574 ft 451 kts 57°
2026-04-22 12:34 58.39744 41.15175 34571 ft 450 kts 57°
2026-04-22 12:35 58.42853 41.25513 34564 ft 450 kts 57°
2026-04-22 12:35 58.45973 41.35900 34565 ft 451 kts 57°
2026-04-22 12:36 58.49097 41.46309 34566 ft 452 kts 57°
2026-04-22 12:36 58.52229 41.56753 34563 ft 453 kts 57°
2026-04-22 12:37 58.55341 41.67140 34561 ft 453 kts 57°
2026-04-22 12:37 58.58471 41.77597 34553 ft 451 kts 58°
2026-04-22 12:38 58.61589 41.88024 34555 ft 451 kts 57°
2026-04-22 12:38 58.64710 41.98469 34555 ft 452 kts 58°
2026-04-22 12:39 58.69425 42.14268 34548 ft 454 kts 58°
2026-04-22 12:40 58.72551 42.24756 34539 ft 454 kts 58°
2026-04-22 12:40 58.75689 42.35291 34539 ft 454 kts 58°
2026-04-22 12:41 58.78798 42.45895 34537 ft 454 kts 59°
2026-04-22 12:41 58.81801 42.56633 34536 ft 456 kts 59°
2026-04-22 12:42 58.84790 42.67395 34529 ft 455 kts 59°
2026-04-22 12:42 58.87804 42.78170 34529 ft 455 kts 59°
2026-04-22 12:43 58.90816 42.88945 34531 ft 455 kts 59°
2026-04-22 12:43 58.93805 42.99660 34532 ft 455 kts 59°
2026-04-22 12:44 58.96810 43.10442 34539 ft 456 kts 59°
2026-04-22 12:44 58.99832 43.21292 34531 ft 457 kts 59°
2026-04-22 12:45 59.02848 43.32123 34521 ft 456 kts 59°
2026-04-22 12:45 59.05871 43.42996 34516 ft 457 kts 59°
2026-04-22 12:46 59.08884 43.53855 34515 ft 457 kts 59°
2026-04-22 12:46 59.11887 43.64673 34520 ft 457 kts 59°
2026-04-22 12:47 59.14914 43.75585 34516 ft 458 kts 59°
2026-04-22 12:47 59.17939 43.86505 34514 ft 456 kts 59°
2026-04-22 12:48 59.20943 43.97363 34517 ft 454 kts 59°
2026-04-22 12:48 59.23947 44.08222 34505 ft 455 kts 59°
2026-04-22 12:49 59.26825 44.19253 34510 ft 458 kts 65°
2026-04-22 12:49 59.29095 44.30901 34509 ft 458 kts 69°
2026-04-22 12:50 59.31213 44.42691 34506 ft 458 kts 68°
2026-04-22 12:50 59.33421 44.54295 34506 ft 458 kts 68°
2026-04-22 12:51 59.35665 44.65984 34511 ft 459 kts 68°
2026-04-22 12:51 59.37896 44.77726 34510 ft 458 kts 68°
2026-04-22 12:52 59.40120 44.89450 34508 ft 460 kts 68°
2026-04-22 12:52 59.42358 45.01236 34501 ft 461 kts 68°
2026-04-22 12:53 59.44598 45.13051 34500 ft 460 kts 68°
2026-04-22 12:53 59.46831 45.24829 34505 ft 460 kts 68°
2026-04-22 12:54 59.49069 45.36645 34502 ft 461 kts 68°
2026-04-22 12:54 59.51296 45.48395 34502 ft 461 kts 68°
2026-04-22 12:55 59.53182 45.58273 34487 ft 458 kts 68°
2026-04-22 12:55 59.55803 45.71918 34490 ft 458 kts 68°
2026-04-22 12:56 59.58073 45.83747 34490 ft 460 kts 68°
2026-04-22 12:56 59.59948 45.93530 34499 ft 458 kts 68°
2026-04-22 12:57 59.62207 46.05327 34501 ft 460 kts 68°
2026-04-22 12:57 59.64467 46.17147 34495 ft 459 kts 68°
2026-04-22 12:58 59.66725 46.28944 34492 ft 459 kts 68°
2026-04-22 12:58 59.68989 46.40793 34492 ft 459 kts 68°
2026-04-22 12:59 59.71243 46.52612 34492 ft 459 kts 68°
2026-04-22 12:59 59.73505 46.64465 34499 ft 459 kts 68°
2026-04-22 13:00 59.75749 46.76216 34503 ft 460 kts 68°
2026-04-22 13:00 59.78011 46.88088 34504 ft 460 kts 68°
2026-04-22 13:01 59.80269 46.99961 34495 ft 459 kts 68°
2026-04-22 13:01 59.82528 47.11835 34492 ft 460 kts 68°
2026-04-22 13:02 59.84729 47.23777 34489 ft 459 kts 69°
2026-04-22 13:02 59.86872 47.35777 34511 ft 461 kts 69°
2026-04-22 13:03 59.89014 47.47740 34492 ft 458 kts 69°
2026-04-22 13:03 59.91166 47.59693 34497 ft 460 kts 69°
2026-04-22 13:04 59.93325 47.71711 34487 ft 460 kts 69°
2026-04-22 13:04 59.95472 47.83696 34486 ft 458 kts 69°
2026-04-22 13:05 59.97557 47.95618 34492 ft 458 kts 70°
2026-04-22 13:05 59.99625 48.07674 34492 ft 459 kts 70°
2026-04-22 13:06 60.01700 48.19778 34502 ft 460 kts 70°
2026-04-22 13:06 60.03778 48.31868 34485 ft 459 kts 70°
2026-04-22 13:07 60.05853 48.43940 34480 ft 459 kts 70°
2026-04-22 13:07 60.07918 48.55967 34478 ft 459 kts 70°
2026-04-22 13:08 60.09996 48.68086 34489 ft 459 kts 70°
2026-04-22 13:08 60.12068 48.80179 34484 ft 459 kts 70°
2026-04-22 13:09 60.14142 48.92281 34484 ft 459 kts 70°
2026-04-22 13:09 60.16219 49.04413 34481 ft 459 kts 70°
2026-04-22 13:10 60.18291 49.16536 34480 ft 458 kts 70°
2026-04-22 13:10 60.20260 49.28711 34475 ft 458 kts 72°
2026-04-22 13:11 60.22024 49.41008 34475 ft 458 kts 73°
2026-04-22 13:11 60.23778 49.53353 34481 ft 458 kts 73°
2026-04-22 13:12 60.25549 49.65574 34481 ft 458 kts 73°
2026-04-22 13:12 60.27334 49.77893 34481 ft 458 kts 73°
2026-04-22 13:13 60.29116 49.90243 34483 ft 458 kts 73°
2026-04-22 13:13 60.30894 50.02567 34491 ft 458 kts 73°
2026-04-22 13:14 60.32678 50.14935 34489 ft 458 kts 73°
2026-04-22 13:14 60.34459 50.27290 34492 ft 458 kts 73°
2026-04-22 13:15 60.36233 50.39602 34491 ft 458 kts 73°
2026-04-22 13:15 60.38013 50.51957 34488 ft 458 kts 73°
2026-04-22 13:16 60.39793 50.64331 34490 ft 458 kts 73°
2026-04-22 13:16 60.41573 50.76710 34483 ft 459 kts 73°
2026-04-22 13:17 60.43360 50.89134 34495 ft 459 kts 73°
2026-04-22 13:17 60.45141 51.01533 34498 ft 459 kts 73°
2026-04-22 13:18 60.46919 51.13957 34498 ft 459 kts 73°
2026-04-22 13:18 60.48628 51.26442 34498 ft 459 kts 74°
2026-04-22 13:19 60.50295 51.38953 34503 ft 460 kts 74°
2026-04-22 13:19 60.51977 51.51490 34495 ft 460 kts 74°
2026-04-22 13:20 60.53656 51.63962 34508 ft 459 kts 74°
2026-04-22 13:20 60.55287 51.76504 34509 ft 460 kts 75°
2026-04-22 13:21 60.56851 51.89147 34509 ft 460 kts 75°
2026-04-22 13:21 60.58410 52.01742 34506 ft 460 kts 75°
2026-04-22 13:22 60.59976 52.14294 34503 ft 461 kts 75°
2026-04-22 13:22 60.61552 52.26945 34511 ft 461 kts 75°
2026-04-22 13:23 60.63123 52.39573 34510 ft 460 kts 75°
2026-04-22 13:23 60.64700 52.52261 34514 ft 460 kts 75°
2026-04-22 13:24 60.66274 52.64920 34503 ft 461 kts 75°
2026-04-22 13:24 60.67845 52.77568 34513 ft 461 kts 75°
2026-04-22 13:25 60.69422 52.90268 34517 ft 461 kts 75°
2026-04-22 13:25 60.70989 53.02888 34528 ft 462 kts 75°
2026-04-22 13:26 60.72566 53.15601 34528 ft 461 kts 75°
2026-04-22 13:26 60.74141 53.28307 34527 ft 461 kts 75°
2026-04-22 13:27 60.75715 53.41009 34530 ft 461 kts 75°
2026-04-22 13:27 60.77292 53.53740 34528 ft 461 kts 75°
2026-04-22 13:28 60.78827 53.66507 34530 ft 462 kts 76°
2026-04-22 13:28 60.80210 53.79350 34541 ft 462 kts 77°
2026-04-22 13:29 60.81555 53.92123 34542 ft 461 kts 77°
2026-04-22 13:29 60.82937 54.04968 34543 ft 462 kts 77°
2026-04-22 13:30 60.84322 54.17831 34549 ft 462 kts 77°
2026-04-22 13:30 60.85705 54.30721 34545 ft 462 kts 77°
2026-04-22 13:31 60.87087 54.43610 34547 ft 463 kts 77°
2026-04-22 13:31 60.88471 54.56520 34551 ft 464 kts 77°
2026-04-22 13:32 60.89862 54.69498 34552 ft 465 kts 77°
2026-04-22 13:32 60.91242 54.82375 34553 ft 464 kts 77°
2026-04-22 13:33 60.92632 54.95366 34549 ft 465 kts 77°
2026-04-22 13:33 60.94023 55.08356 34549 ft 466 kts 77°
2026-04-22 13:34 60.95417 55.21386 34557 ft 465 kts 77°
2026-04-22 13:34 60.96807 55.34390 34556 ft 465 kts 77°
2026-04-22 13:35 60.98196 55.47381 34552 ft 465 kts 77°
2026-04-22 13:35 60.99579 55.60327 34555 ft 465 kts 77°
2026-04-22 13:36 61.00974 55.73385 34555 ft 467 kts 77°
2026-04-22 13:36 61.02371 55.86477 34551 ft 467 kts 77°
2026-04-22 13:37 61.03766 55.99547 34559 ft 466 kts 77°
2026-04-22 13:37 61.05161 56.12627 34556 ft 466 kts 77°
2026-04-22 13:38 61.06554 56.25696 34556 ft 466 kts 77°
2026-04-22 13:38 61.08639 56.45260 34555 ft 467 kts 77°
2026-04-22 13:39 61.10035 56.58368 34556 ft 467 kts 77°
2026-04-22 13:39 61.11432 56.71500 34555 ft 467 kts 77°
2026-04-22 13:40 61.12829 56.84628 34561 ft 466 kts 77°
2026-04-22 13:40 61.14221 56.97719 34555 ft 466 kts 77°
2026-04-22 13:41 61.15617 57.10852 34555 ft 467 kts 77°
2026-04-22 13:41 61.16874 57.24080 34551 ft 469 kts 82°
2026-04-22 13:42 61.17327 57.37540 34555 ft 468 kts 89°
2026-04-22 13:42 61.17528 57.50915 34552 ft 468 kts 88°
2026-04-22 13:43 61.17892 57.64382 34553 ft 467 kts 86°
2026-04-22 13:43 61.18284 57.77850 34557 ft 467 kts 87°
2026-04-22 13:44 61.18644 57.91306 34549 ft 468 kts 87°
2026-04-22 13:44 61.18941 58.02508 34546 ft 469 kts 87°
2026-04-22 13:45 61.19366 58.18239 34552 ft 470 kts 87°
2026-04-22 13:45 61.19672 58.29594 34550 ft 471 kts 87°
2026-04-22 13:46 61.20097 58.45349 34544 ft 470 kts 87°
2026-04-22 13:46 61.20402 58.56691 34551 ft 470 kts 87°
2026-04-22 13:47 61.20765 58.70152 34549 ft 470 kts 87°
2026-04-22 13:47 61.21129 58.83698 34544 ft 470 kts 87°
2026-04-22 13:48 61.21495 58.97264 34544 ft 471 kts 87°
2026-04-22 13:48 61.21860 59.10837 34538 ft 471 kts 87°
2026-04-22 13:49 61.22226 59.24404 34538 ft 471 kts 87°
2026-04-22 13:49 61.22638 59.37964 34532 ft 471 kts 86°
2026-04-22 13:50 61.23107 59.51522 34530 ft 472 kts 86°
2026-04-22 13:50 61.23555 59.65046 34530 ft 473 kts 86°
2026-04-22 13:51 61.24000 59.78726 34527 ft 474 kts 86°
2026-04-22 13:51 61.24449 59.92413 34527 ft 474 kts 86°
2026-04-22 13:52 61.24898 60.06050 34527 ft 473 kts 86°
2026-04-22 13:52 61.25345 60.19669 34527 ft 473 kts 86°
2026-04-22 13:53 61.25793 60.33334 34528 ft 473 kts 86°
2026-04-22 13:53 61.26241 60.46964 34528 ft 473 kts 86°
2026-04-22 13:54 61.26689 60.60622 34531 ft 474 kts 86°
2026-04-22 13:54 61.27137 60.74269 34531 ft 474 kts 86°
2026-04-22 13:55 61.27583 60.87867 34541 ft 474 kts 86°
2026-04-22 13:55 61.28031 61.01531 34526 ft 473 kts 87°
2026-04-22 13:56 61.28479 61.15184 34527 ft 472 kts 87°
2026-04-22 13:56 61.28926 61.28840 34535 ft 478 kts 87°
2026-04-22 13:57 61.29380 61.42689 34526 ft 479 kts 86°
2026-04-22 13:57 61.29832 61.56454 34533 ft 475 kts 87°
2026-04-22 13:58 61.30281 61.70170 34535 ft 475 kts 87°
2026-04-22 13:58 61.30729 61.83826 34529 ft 475 kts 87°
2026-04-22 13:59 61.31177 61.97508 34539 ft 475 kts 87°
2026-04-22 13:59 61.31628 62.11255 34543 ft 475 kts 87°
2026-04-22 14:00 61.32077 62.24977 34546 ft 475 kts 87°
2026-04-22 14:00 61.32527 62.38716 34546 ft 475 kts 87°
2026-04-22 14:01 61.32977 62.52447 34543 ft 474 kts 87°
2026-04-22 14:01 61.33426 62.66157 34547 ft 474 kts 87°
2026-04-22 14:02 61.33871 62.79775 34554 ft 474 kts 87°
2026-04-22 14:02 61.34320 62.93478 34554 ft 475 kts 87°
2026-04-22 14:03 61.34770 63.07217 34559 ft 476 kts 87°
2026-04-22 14:03 61.35221 63.21010 34552 ft 476 kts 87°
2026-04-22 14:04 61.35671 63.34750 34567 ft 475 kts 87°
2026-04-22 14:04 61.36120 63.48478 34563 ft 475 kts 87°
2026-04-22 14:05 61.36569 63.62206 34567 ft 475 kts 87°
2026-04-22 14:06 61.37244 63.82850 34568 ft 476 kts 87°
2026-04-22 14:06 61.37695 63.96637 34567 ft 475 kts 87°
2026-04-22 14:07 61.38144 64.10364 34574 ft 474 kts 87°
2026-04-22 14:07 61.38590 64.24027 34578 ft 474 kts 87°
2026-04-22 14:08 61.39039 64.37767 34576 ft 475 kts 87°
2026-04-22 14:08 61.39530 64.51517 34580 ft 475 kts 85°
2026-04-22 14:09 61.40666 64.65107 34580 ft 476 kts 77°
2026-04-22 14:09 61.42247 64.78576 34581 ft 478 kts 77°
2026-04-22 14:10 61.43704 64.92109 34587 ft 478 kts 79°
2026-04-22 14:10 61.45097 65.05719 34586 ft 478 kts 79°
2026-04-22 14:11 61.46509 65.19245 34592 ft 482 kts 79°
2026-04-22 14:11 61.47952 65.32950 34586 ft 482 kts 79°
2026-04-22 14:12 61.49380 65.46586 34593 ft 480 kts 79°
2026-04-22 14:12 61.50810 65.60261 34591 ft 480 kts 79°
2026-04-22 14:13 61.52237 65.73913 34593 ft 480 kts 79°
2026-04-22 14:13 61.53666 65.87575 34594 ft 480 kts 79°
2026-04-22 14:14 61.55097 66.01268 34590 ft 480 kts 79°
2026-04-22 14:14 61.56526 66.14953 34592 ft 480 kts 79°
2026-04-22 14:15 61.57948 66.28574 34593 ft 481 kts 79°
2026-04-22 14:15 61.59379 66.42280 34594 ft 481 kts 79°
2026-04-22 14:16 61.60810 66.55998 34591 ft 481 kts 79°
2026-04-22 14:16 61.62244 66.69754 34600 ft 481 kts 79°
2026-04-22 14:17 61.63672 66.83461 34598 ft 480 kts 79°
2026-04-22 14:17 61.65103 66.97198 34597 ft 480 kts 79°
2026-04-22 14:18 61.66535 67.10950 34593 ft 481 kts 79°
2026-04-22 14:18 61.67965 67.24691 34594 ft 481 kts 79°
2026-04-22 14:19 61.69387 67.38366 34595 ft 481 kts 79°
2026-04-22 14:19 61.70819 67.52141 34594 ft 481 kts 79°
2026-04-22 14:20 61.72971 67.72851 34595 ft 481 kts 79°
2026-04-22 14:20 61.74407 67.86677 34594 ft 482 kts 79°
2026-04-22 14:21 61.76554 68.07392 34591 ft 481 kts 79°
2026-04-22 14:22 61.78341 68.28131 34592 ft 479 kts 83°
2026-04-22 14:23 61.79928 68.48965 34594 ft 479 kts 82°
2026-04-22 14:23 61.81037 68.62860 34595 ft 479 kts 82°
2026-04-22 14:24 61.82141 68.76780 34591 ft 480 kts 82°
2026-04-22 14:24 61.83238 68.90701 34588 ft 479 kts 83°
2026-04-22 14:25 61.84333 69.04581 34595 ft 478 kts 83°
2026-04-22 14:25 61.85422 69.18381 34575 ft 479 kts 83°
2026-04-22 14:26 61.86531 69.32465 34595 ft 486 kts 83°
2026-04-22 14:26 61.87643 69.46537 34599 ft 482 kts 83°
2026-04-22 14:27 61.88745 69.60513 34600 ft 480 kts 83°
2026-04-22 14:27 61.89843 69.74464 34596 ft 480 kts 83°
2026-04-22 14:28 61.90943 69.88435 34617 ft 480 kts 83°
2026-04-22 14:28 61.92037 70.02328 34609 ft 480 kts 83°
2026-04-22 14:29 61.93145 70.16397 34618 ft 480 kts 83°
2026-04-22 14:29 61.94237 70.30274 34619 ft 479 kts 83°
2026-04-22 14:30 61.95334 70.44232 34634 ft 478 kts 83°
2026-04-22 14:30 61.96432 70.58193 34627 ft 479 kts 83°
2026-04-22 14:31 61.97525 70.72101 34632 ft 479 kts 83°
2026-04-22 14:31 61.98622 70.86072 34628 ft 478 kts 83°
2026-04-22 14:32 61.99688 71.00061 34615 ft 478 kts 84°
2026-04-22 14:32 62.00629 71.14044 34646 ft 478 kts 85°
2026-04-22 14:32 62.01086 71.21083 34500 ft 480 kts 85°
2026-04-22 14:33 62.01548 71.28076 34062 ft 477 kts 85°
2026-04-22 14:33 62.01859 71.32706 33761 ft 474 kts 85°
2026-04-22 14:33 62.02478 71.41860 33061 ft 469 kts 85°
2026-04-22 14:33 62.02922 71.48753 32458 ft 469 kts 86°
2026-04-22 14:34 62.03329 71.55641 31828 ft 469 kts 87°
2026-04-22 14:34 62.03715 71.62563 31200 ft 468 kts 88°
2026-04-22 14:34 62.04093 71.69433 30592 ft 468 kts 88°
2026-04-22 14:34 62.04345 71.73987 30153 ft 467 kts 88°
2026-04-22 14:35 62.04866 71.83199 29287 ft 467 kts 89°
2026-04-22 14:35 62.05125 71.87727 28814 ft 464 kts 89°
2026-04-22 14:35 62.05647 71.96811 27872 ft 458 kts 89°
2026-04-22 14:35 62.05903 72.01269 27425 ft 455 kts 89°
2026-04-22 14:36 62.06282 72.07929 26749 ft 450 kts 89°
2026-04-22 14:36 62.06657 72.14506 26100 ft 444 kts 89°
2026-04-22 14:36 62.07026 72.21000 25466 ft 438 kts 89°
2026-04-22 14:36 62.07391 72.27414 24833 ft 432 kts 89°
2026-04-22 14:37 62.07749 72.33716 24216 ft 426 kts 90°
2026-04-22 14:37 62.08103 72.39967 23613 ft 421 kts 90°
2026-04-22 14:37 62.08449 72.46056 22903 ft 417 kts 90°
2026-04-22 14:37 62.08795 72.52170 22154 ft 413 kts 90°
2026-04-22 14:38 62.09138 72.58220 21471 ft 408 kts 90°
2026-04-22 14:38 62.09479 72.64206 20799 ft 403 kts 90°
2026-04-22 14:38 62.09814 72.70101 20146 ft 399 kts 90°
2026-04-22 14:38 62.10146 72.75950 19511 ft 395 kts 90°
2026-04-22 14:39 62.10474 72.81737 18894 ft 390 kts 90°
2026-04-22 14:39 62.10798 72.87455 18283 ft 386 kts 90°
2026-04-22 14:39 62.11120 72.93132 17635 ft 383 kts 90°
2026-04-22 14:40 62.11754 73.04301 16299 ft 375 kts 90°
2026-04-22 14:40 62.12066 73.09807 15644 ft 372 kts 90°
2026-04-22 14:40 62.12376 73.15264 14981 ft 367 kts 90°
2026-04-22 14:40 62.12683 73.20658 14400 ft 362 kts 90°
2026-04-22 14:41 62.12985 73.25976 13833 ft 358 kts 90°
2026-04-22 14:41 62.13283 73.31237 13256 ft 354 kts 91°
2026-04-22 14:41 62.13576 73.36417 12622 ft 350 kts 90°
2026-04-22 14:41 62.13867 73.41564 12019 ft 347 kts 90°
2026-04-22 14:42 62.14156 73.46659 11390 ft 344 kts 90°
2026-04-22 14:42 62.14442 73.51706 10804 ft 341 kts 90°
2026-04-22 14:42 62.14729 73.56715 10267 ft 337 kts 90°
2026-04-22 14:42 62.15175 73.61556 10089 ft 329 kts 80°
2026-04-22 14:43 62.16078 73.66020 9907 ft 324 kts 67°
2026-04-22 14:43 62.17259 73.70012 9612 ft 321 kts 61°
2026-04-22 14:43 62.18518 73.73874 9267 ft 314 kts 61°
2026-04-22 14:43 62.19753 73.77743 8814 ft 312 kts 62°
2026-04-22 14:44 62.20943 73.81598 8370 ft 309 kts 62°
2026-04-22 14:44 62.22110 73.85440 7915 ft 306 kts 62°
2026-04-22 14:44 62.23270 73.89257 7510 ft 304 kts 61°
2026-04-22 14:44 62.24420 73.93035 7108 ft 301 kts 61°
2026-04-22 14:45 62.25563 73.96784 6719 ft 299 kts 60°
2026-04-22 14:45 62.26695 74.00497 6321 ft 297 kts 60°
2026-04-22 14:45 62.27820 74.04190 5917 ft 294 kts 60°
2026-04-22 14:45 62.28943 74.07872 5463 ft 293 kts 61°
2026-04-22 14:46 62.30040 74.11472 5065 ft 291 kts 62°
2026-04-22 14:46 62.31148 74.15112 4643 ft 290 kts 63°
2026-04-22 14:46 62.32249 74.18731 4246 ft 287 kts 64°
2026-04-22 14:46 62.33324 74.22259 3985 ft 278 kts 65°
2026-04-22 14:47 62.34362 74.25661 3827 ft 266 kts 65°
2026-04-22 14:47 62.35359 74.28933 3694 ft 254 kts 66°
2026-04-22 14:47 62.36301 74.32029 3644 ft 239 kts 66°
2026-04-22 14:47 62.37196 74.34982 3507 ft 229 kts 67°
2026-04-22 14:48 62.37962 74.37871 3349 ft 215 kts 77°
2026-04-22 14:48 62.38327 74.40823 3155 ft 196 kts 96°
2026-04-22 14:48 62.38289 74.43644 2974 ft 183 kts 106°
2026-04-22 14:48 62.38117 74.46310 2794 ft 175 kts 108°
2026-04-22 14:49 62.37913 74.48853 2627 ft 169 kts 109°
2026-04-22 14:49 62.37700 74.51300 2445 ft 163 kts 110°
2026-04-22 14:49 62.37466 74.53646 2260 ft 157 kts 114°
2026-04-22 14:49 62.37090 74.55780 2077 ft 148 kts 124°
2026-04-22 14:50 62.36511 74.57555 2007 ft 147 kts 136°
2026-04-22 14:50 62.35682 74.58785 1981 ft 148 kts 162°
2026-04-22 14:50 62.34652 74.58991 2026 ft 151 kts 174°
2026-04-22 14:50 62.33602 74.58838 2030 ft 153 kts 179°
2026-04-22 14:51 62.32545 74.58520 2020 ft 153 kts 181°
2026-04-22 14:51 62.31494 74.58143 2016 ft 153 kts 182°
2026-04-22 14:51 62.30448 74.57733 2054 ft 149 kts 183°
2026-04-22 14:51 62.29463 74.57333 2074 ft 139 kts 182°
2026-04-22 14:52 62.28590 74.56988 2008 ft 118 kts 180°
2026-04-22 14:52 62.27780 74.56702 1901 ft 117 kts 180°
2026-04-22 14:52 62.26978 74.56410 1706 ft 116 kts 181°
2026-04-22 14:52 62.26194 74.56103 1555 ft 114 kts 181°
2026-04-22 14:53 62.25401 74.55796 1381 ft 117 kts 181°
2026-04-22 14:53 62.24590 74.55490 1213 ft 120 kts 181°
2026-04-22 14:53 62.23752 74.55201 1027 ft 124 kts 183°
2026-04-22 14:53 62.22889 74.54838 845 ft 129 kts 185°
2026-04-22 14:54 62.22001 74.54495 661 ft 128 kts 182°
2026-04-22 14:54 62.21140 74.54166 472 ft 123 kts 183°
2026-04-22 14:54 62.20286 74.53859 289 ft 127 kts 185°
2026-04-22 14:54 62.19449 74.53548 228 ft 107 kts 188°
2026-04-22 14:55 62.18956 74.53355 231 ft 42 kts 190°
2026-04-22 14:55 62.18749 74.53274 227 ft 17 kts 190°
2026-04-22 14:55 62.18692 74.53229 229 ft 6 kts 204°
2026-04-22 14:55 62.18676 74.53245 228 ft 3 kts 98°
2026-04-22 14:56 62.18699 74.53264 228 ft 8 kts
2026-04-22 14:56 62.18776 74.53288 227 ft 14 kts
2026-04-22 14:56 62.18878 74.53325 230 ft 15 kts 10°
2026-04-22 14:56 62.18987 74.53365 231 ft 17 kts
2026-04-22 14:57 62.19105 74.53408 231 ft 18 kts
2026-04-22 14:57 62.19236 74.53459 231 ft 18 kts
2026-04-22 14:57 62.19345 74.53499 230 ft 15 kts 10°
2026-04-22 14:57 62.19430 74.53499 228 ft 10 kts 333°
2026-04-22 14:58 62.19454 74.53409 228 ft 6 kts 279°
2026-04-22 14:58 62.19460 74.53336 231 ft 5 kts 279°
2026-04-22 14:58 62.19466 74.53263 229 ft 5 kts 291°
2026-04-22 14:58 62.19495 74.53209 231 ft 6 kts 341°
2026-04-22 14:59 62.19537 74.53213 229 ft 6 kts
2026-04-22 14:59 62.19566 74.53168 231 ft 5 kts 280°
2026-04-22 14:59 62.19571 74.53094 229 ft 1 kts 279°
2026-04-22 14:59 62.19571 74.53091 229 ft 0 kts 279°